VOZ1858 YPKG-YPPH

Flight info

Callsign VOZ1858
Flight time 0h 55m
Altitude 36000
Route KG Q41 MALUP Q158 PH
Aircraft B738/M-SDE3FGHIRWZ/LB1

Departure

Time 2026-05-07 04:53
Airport Kalgoorlie Boulder Airport (YPKG)

Arrival

Time 2026-05-07 05:48
Airport Perth International Airport (YPPH)
Time Latitude Longitude Altitude Speed Heading
2026-05-07 04:34 -30.78557 121.45663 1214 ft 0 kts 59°
2026-05-07 04:47 -30.78557 121.45665 1214 ft 1 kts 81°
2026-05-07 04:47 -30.78571 121.45676 1214 ft 4 kts 178°
2026-05-07 04:47 -30.78618 121.45720 1214 ft 9 kts 109°
2026-05-07 04:48 -30.78619 121.45723 1214 ft 0 kts 109°
2026-05-07 04:48 -30.78625 121.45742 1214 ft 5 kts 114°
2026-05-07 04:48 -30.78646 121.45771 1214 ft 5 kts 147°
2026-05-07 04:48 -30.78699 121.45772 1214 ft 10 kts 199°
2026-05-07 04:49 -30.78760 121.45747 1214 ft 7 kts 200°
2026-05-07 04:49 -30.78788 121.45734 1214 ft 0 kts 201°
2026-05-07 04:50 -30.78792 121.45732 1214 ft 3 kts 201°
2026-05-07 04:50 -30.78867 121.45695 1214 ft 13 kts 218°
2026-05-07 04:51 -30.78875 121.45596 1214 ft 12 kts 289°
2026-05-07 04:51 -30.78861 121.45500 1214 ft 11 kts 275°
2026-05-07 04:51 -30.78846 121.45518 1214 ft 1 kts 111°
2026-05-07 04:53 -30.78855 121.45546 1214 ft 25 kts 111°
2026-05-07 04:53 -30.79012 121.46038 1214 ft 101 kts 110°
2026-05-07 04:53 -30.79333 121.47033 1255 ft 158 kts 109°
2026-05-07 04:53 -30.79784 121.48206 1934 ft 162 kts 114°
2026-05-07 04:54 -30.80338 121.49387 2614 ft 174 kts 118°
2026-05-07 04:54 -30.81264 121.50281 3256 ft 190 kts 155°
2026-05-07 04:54 -30.82723 121.50438 3563 ft 227 kts 187°
2026-05-07 04:54 -30.84060 121.49515 4352 ft 238 kts 228°
2026-05-07 04:55 -30.84789 121.47689 4767 ft 262 kts 259°
2026-05-07 04:55 -30.85104 121.45626 5810 ft 252 kts 260°
2026-05-07 04:55 -30.85424 121.43853 7361 ft 212 kts 256°
2026-05-07 04:55 -30.85786 121.42193 7874 ft 226 kts 255°
2026-05-07 04:56 -30.86200 121.40343 8163 ft 250 kts 259°
2026-05-07 04:56 -30.86448 121.38311 8842 ft 256 kts 264°
2026-05-07 04:56 -30.86665 121.36224 9402 ft 268 kts 263°
2026-05-07 04:56 -30.86908 121.34023 9977 ft 281 kts 263°
2026-05-07 04:57 -30.87156 121.31716 10473 ft 295 kts 263°
2026-05-07 04:57 -30.87441 121.29278 10863 ft 314 kts 261°
2026-05-07 04:57 -30.88092 121.26829 11290 ft 329 kts 243°
2026-05-07 04:57 -30.89328 121.24522 11727 ft 344 kts 233°
2026-05-07 04:58 -30.90770 121.22236 12312 ft 354 kts 232°
2026-05-07 04:58 -30.92213 121.19887 13079 ft 358 kts 234°
2026-05-07 04:58 -30.93588 121.17497 13812 ft 364 kts 235°
2026-05-07 04:58 -30.94952 121.14996 14601 ft 368 kts 236°
2026-05-07 04:59 -30.96292 121.12462 15405 ft 371 kts 237°
2026-05-07 04:59 -30.97640 121.09879 16195 ft 374 kts 237°
2026-05-07 04:59 -30.98996 121.07270 16953 ft 378 kts 237°
2026-05-07 04:59 -31.00363 121.04639 17708 ft 382 kts 237°
2026-05-07 05:00 -31.01739 121.01997 18451 ft 385 kts 237°
2026-05-07 05:00 -31.03131 120.99329 19202 ft 386 kts 237°
2026-05-07 05:00 -31.04520 120.96665 19878 ft 390 kts 237°
2026-05-07 05:00 -31.05923 120.93974 20559 ft 393 kts 237°
2026-05-07 05:01 -31.07355 120.91229 21238 ft 395 kts 237°
2026-05-07 05:01 -31.08769 120.88516 21918 ft 397 kts 237°
2026-05-07 05:01 -31.10206 120.85756 22558 ft 399 kts 237°
2026-05-07 05:01 -31.11654 120.82972 23153 ft 403 kts 237°
2026-05-07 05:02 -31.13108 120.80176 23757 ft 405 kts 237°
2026-05-07 05:02 -31.14584 120.77335 24289 ft 410 kts 237°
2026-05-07 05:02 -31.16049 120.74509 24848 ft 413 kts 237°
2026-05-07 05:02 -31.17538 120.71635 25360 ft 417 kts 237°
2026-05-07 05:03 -31.19052 120.68711 25884 ft 420 kts 237°
2026-05-07 05:03 -31.20547 120.65821 26403 ft 423 kts 237°
2026-05-07 05:03 -31.22067 120.62882 26903 ft 426 kts 237°
2026-05-07 05:03 -31.23610 120.59895 27393 ft 429 kts 237°
2026-05-07 05:04 -31.25143 120.56928 27880 ft 431 kts 237°
2026-05-07 05:04 -31.26707 120.53899 28297 ft 435 kts 237°
2026-05-07 05:04 -31.28268 120.50874 28764 ft 438 kts 237°
2026-05-07 05:04 -31.29835 120.47833 29219 ft 441 kts 237°
2026-05-07 05:05 -31.31387 120.44682 29678 ft 444 kts 240°
2026-05-07 05:05 -31.32763 120.41460 30090 ft 448 kts 243°
2026-05-07 05:05 -31.34048 120.38148 30576 ft 448 kts 244°
2026-05-07 05:05 -31.35270 120.34856 31355 ft 441 kts 245°
2026-05-07 05:06 -31.36467 120.31585 31925 ft 439 kts 246°
2026-05-07 05:06 -31.37671 120.28293 32554 ft 434 kts 245°
2026-05-07 05:06 -31.38844 120.25103 33078 ft 432 kts 245°
2026-05-07 05:06 -31.40035 120.21882 33560 ft 430 kts 245°
2026-05-07 05:07 -31.41224 120.18685 34082 ft 428 kts 245°
2026-05-07 05:07 -31.42415 120.15500 34491 ft 426 kts 245°
2026-05-07 05:07 -31.43606 120.12333 34861 ft 424 kts 245°
2026-05-07 05:07 -31.44820 120.09108 35226 ft 422 kts 245°
2026-05-07 05:08 -31.46026 120.05904 35577 ft 421 kts 245°
2026-05-07 05:08 -31.47216 120.02741 35913 ft 420 kts 245°
2026-05-07 05:08 -31.48411 119.99566 36274 ft 419 kts 245°
2026-05-07 05:08 -31.49594 119.96426 36429 ft 422 kts 245°
2026-05-07 05:09 -31.52020 119.89973 36435 ft 433 kts 245°
2026-05-07 05:09 -31.54444 119.83498 36443 ft 431 kts 245°
2026-05-07 05:10 -31.56855 119.77038 36438 ft 432 kts 245°
2026-05-07 05:10 -31.59273 119.70557 36440 ft 432 kts 245°
2026-05-07 05:11 -31.61665 119.64133 36439 ft 432 kts 245°
2026-05-07 05:11 -31.64062 119.57690 36440 ft 432 kts 245°
2026-05-07 05:12 -31.66462 119.51236 36434 ft 432 kts 245°
2026-05-07 05:12 -31.68858 119.44768 36434 ft 432 kts 245°
2026-05-07 05:13 -31.71242 119.38309 36437 ft 432 kts 245°
2026-05-07 05:13 -31.73652 119.31785 36434 ft 441 kts 245°
2026-05-07 05:14 -31.76113 119.25124 36431 ft 445 kts 245°
2026-05-07 05:14 -31.78546 119.18510 36434 ft 443 kts 246°
2026-05-07 05:15 -31.81000 119.11817 36440 ft 444 kts 245°
2026-05-07 05:15 -31.83437 119.05163 36447 ft 445 kts 246°
2026-05-07 05:16 -31.85876 118.98489 36448 ft 444 kts 245°
2026-05-07 05:16 -31.88313 118.91800 36445 ft 444 kts 246°
2026-05-07 05:17 -31.90739 118.85123 36444 ft 444 kts 245°
2026-05-07 05:17 -31.93158 118.78466 36453 ft 444 kts 245°
2026-05-07 05:18 -31.95600 118.71745 36450 ft 444 kts 245°
2026-05-07 05:18 -31.98012 118.65087 36452 ft 445 kts 245°
2026-05-07 05:19 -32.00440 118.58375 36450 ft 445 kts 246°
2026-05-07 05:19 -32.02856 118.51671 36444 ft 444 kts 246°
2026-05-07 05:20 -32.05271 118.44952 36437 ft 445 kts 245°
2026-05-07 05:20 -32.07678 118.38272 36439 ft 445 kts 245°
2026-05-07 05:21 -32.11577 118.28364 36440 ft 444 kts 243°
2026-05-07 05:22 -32.14255 118.21745 36436 ft 444 kts 244°
2026-05-07 05:22 -32.16901 118.15164 36431 ft 444 kts 244°
2026-05-07 05:23 -32.19533 118.08562 36434 ft 444 kts 244°
2026-05-07 05:23 -32.22147 118.01973 36440 ft 444 kts 244°
2026-05-07 05:24 -32.24758 117.95364 36436 ft 444 kts 244°
2026-05-07 05:24 -32.27369 117.88746 36433 ft 444 kts 244°
2026-05-07 05:25 -32.29939 117.82217 36361 ft 430 kts 244°
2026-05-07 05:25 -32.31178 117.79054 36035 ft 423 kts 244°
2026-05-07 05:25 -32.32411 117.75906 35636 ft 419 kts 244°
2026-05-07 05:25 -32.33623 117.72813 35110 ft 420 kts 244°
2026-05-07 05:26 -32.34672 117.69566 34458 ft 426 kts 252°
2026-05-07 05:26 -32.35246 117.66125 33689 ft 431 kts 264°
2026-05-07 05:26 -32.35273 117.62566 32978 ft 433 kts 274°
2026-05-07 05:26 -32.34866 117.59091 32494 ft 429 kts 281°
2026-05-07 05:27 -32.34197 117.55660 31996 ft 427 kts 284°
2026-05-07 05:27 -32.33402 117.52273 31471 ft 431 kts 286°
2026-05-07 05:27 -32.32567 117.48917 30943 ft 429 kts 287°
2026-05-07 05:27 -32.31714 117.45538 30402 ft 426 kts 287°
2026-05-07 05:28 -32.30867 117.42181 29849 ft 423 kts 287°
2026-05-07 05:28 -32.30040 117.38877 29311 ft 420 kts 287°
2026-05-07 05:28 -32.29220 117.35574 28775 ft 417 kts 287°
2026-05-07 05:28 -32.28417 117.32311 28262 ft 413 kts 287°
2026-05-07 05:29 -32.27615 117.29036 27734 ft 410 kts 287°
2026-05-07 05:29 -32.26828 117.25816 27218 ft 407 kts 287°
2026-05-07 05:29 -32.26054 117.22651 26715 ft 404 kts 287°
2026-05-07 05:29 -32.25281 117.19476 26181 ft 402 kts 287°
2026-05-07 05:30 -32.24511 117.16313 25659 ft 399 kts 287°
2026-05-07 05:30 -32.23749 117.13183 25148 ft 396 kts 287°
2026-05-07 05:30 -32.22992 117.10078 24660 ft 393 kts 287°
2026-05-07 05:30 -32.22242 117.07004 24177 ft 390 kts 288°
2026-05-07 05:31 -32.21494 117.03949 23676 ft 387 kts 288°
2026-05-07 05:31 -32.20756 117.00942 23185 ft 384 kts 288°
2026-05-07 05:31 -32.20009 116.97897 22699 ft 381 kts 288°
2026-05-07 05:31 -32.19284 116.94943 22212 ft 379 kts 288°
2026-05-07 05:32 -32.18556 116.91964 21719 ft 377 kts 288°
2026-05-07 05:32 -32.17898 116.88983 21259 ft 374 kts 284°
2026-05-07 05:32 -32.17416 116.85993 20770 ft 373 kts 281°
2026-05-07 05:32 -32.17028 116.82964 20274 ft 371 kts 279°
2026-05-07 05:33 -32.16678 116.79981 19794 ft 369 kts 279°
2026-05-07 05:33 -32.16331 116.77016 19318 ft 367 kts 279°
2026-05-07 05:33 -32.15974 116.74034 18839 ft 364 kts 280°
2026-05-07 05:33 -32.15612 116.71104 18369 ft 362 kts 280°
2026-05-07 05:34 -32.15241 116.68169 17893 ft 361 kts 281°
2026-05-07 05:34 -32.14885 116.65273 17448 ft 359 kts 279°
2026-05-07 05:34 -32.14653 116.62339 16997 ft 358 kts 274°
2026-05-07 05:34 -32.14715 116.59409 16534 ft 357 kts 266°
2026-05-07 05:35 -32.14987 116.56498 16042 ft 357 kts 263°
2026-05-07 05:35 -32.15345 116.53595 15562 ft 356 kts 262°
2026-05-07 05:35 -32.15710 116.50745 15100 ft 354 kts 262°
2026-05-07 05:35 -32.16067 116.47861 14626 ft 352 kts 263°
2026-05-07 05:36 -32.16399 116.45029 14162 ft 350 kts 263°
2026-05-07 05:36 -32.16718 116.42188 13691 ft 348 kts 264°
2026-05-07 05:36 -32.17022 116.39394 13227 ft 346 kts 264°
2026-05-07 05:36 -32.17326 116.36559 12762 ft 344 kts 264°
2026-05-07 05:37 -32.17621 116.33800 12305 ft 342 kts 264°
2026-05-07 05:37 -32.17916 116.31024 11848 ft 339 kts 264°
2026-05-07 05:37 -32.18211 116.28262 11390 ft 337 kts 264°
2026-05-07 05:37 -32.18503 116.25530 10950 ft 334 kts 264°
2026-05-07 05:38 -32.18786 116.22872 10757 ft 323 kts 264°
2026-05-07 05:38 -32.19060 116.20279 10645 ft 310 kts 264°
2026-05-07 05:38 -32.19324 116.17784 10538 ft 298 kts 264°
2026-05-07 05:38 -32.19577 116.15370 10281 ft 293 kts 265°
2026-05-07 05:39 -32.19715 116.12981 9816 ft 291 kts 269°
2026-05-07 05:39 -32.19765 116.10618 9321 ft 290 kts 271°
2026-05-07 05:39 -32.19789 116.08250 8999 ft 284 kts 271°
2026-05-07 05:39 -32.19809 116.05919 8995 ft 287 kts 271°
2026-05-07 05:40 -32.19817 116.03542 8951 ft 290 kts 274°
2026-05-07 05:40 -32.19570 116.01183 8580 ft 290 kts 283°
2026-05-07 05:40 -32.19097 115.98883 7953 ft 292 kts 288°
2026-05-07 05:40 -32.18549 115.96569 7316 ft 295 kts 288°
2026-05-07 05:41 -32.17999 115.94239 6677 ft 297 kts 288°
2026-05-07 05:41 -32.17457 115.91867 6040 ft 299 kts 288°
2026-05-07 05:41 -32.16757 115.89548 5388 ft 298 kts 299°
2026-05-07 05:41 -32.15644 115.87496 4749 ft 295 kts 311°
2026-05-07 05:42 -32.14354 115.85667 4121 ft 294 kts 314°
2026-05-07 05:42 -32.13015 115.83853 3486 ft 294 kts 314°
2026-05-07 05:42 -32.11605 115.82118 2917 ft 289 kts 323°
2026-05-07 05:42 -32.09985 115.80859 2778 ft 263 kts 342°
2026-05-07 05:43 -32.08278 115.80418 2792 ft 243 kts 359°
2026-05-07 05:43 -32.06667 115.80289 2801 ft 218 kts
2026-05-07 05:43 -32.05234 115.80173 2786 ft 197 kts
2026-05-07 05:43 -32.03933 115.80035 2792 ft 176 kts
2026-05-07 05:44 -32.02740 115.79896 2799 ft 173 kts
2026-05-07 05:44 -32.01525 115.79949 2781 ft 175 kts 19°
2026-05-07 05:44 -32.00548 115.80718 2788 ft 169 kts 52°
2026-05-07 05:44 -31.99987 115.81935 2688 ft 170 kts 69°
2026-05-07 05:45 -31.99621 115.83253 2515 ft 166 kts 71°
2026-05-07 05:45 -31.99278 115.84493 2350 ft 150 kts 70°
2026-05-07 05:45 -31.98962 115.85586 2184 ft 131 kts 70°
2026-05-07 05:45 -31.98683 115.86552 1999 ft 120 kts 71°
2026-05-07 05:46 -31.98417 115.87482 1827 ft 119 kts 70°
2026-05-07 05:46 -31.97997 115.88321 1629 ft 120 kts 56°
2026-05-07 05:46 -31.97525 115.89134 1480 ft 120 kts 58°
2026-05-07 05:46 -31.97078 115.89977 1301 ft 119 kts 60°
2026-05-07 05:47 -31.96663 115.90825 1158 ft 123 kts 61°
2026-05-07 05:47 -31.96237 115.91727 984 ft 129 kts 61°
2026-05-07 05:47 -31.95772 115.92632 806 ft 127 kts 59°
2026-05-07 05:47 -31.95311 115.93529 568 ft 130 kts 61°
2026-05-07 05:48 -31.94849 115.94444 361 ft 132 kts 59°
2026-05-07 05:48 -31.94394 115.95336 205 ft 121 kts 59°
2026-05-07 05:48 -31.93965 115.96176 81 ft 116 kts 60°
2026-05-07 05:48 -31.93686 115.96720 80 ft 29 kts 57°
2026-05-07 05:49 -31.93649 115.96793 80 ft 7 kts 60°
2026-05-07 05:49 -31.93608 115.96875 80 ft 15 kts 60°
2026-05-07 05:49 -31.93633 115.96966 80 ft 13 kts 173°
2026-05-07 05:49 -31.93765 115.96931 80 ft 26 kts 193°
2026-05-07 05:50 -31.93945 115.96882 80 ft 26 kts 193°
2026-05-07 05:50 -31.94111 115.96833 80 ft 20 kts 194°
2026-05-07 05:50 -31.94193 115.96870 80 ft 12 kts 112°
2026-05-07 05:50 -31.94212 115.96966 80 ft 11 kts 104°
2026-05-07 05:51 -31.94225 115.97035 80 ft 5 kts 94°
2026-05-07 05:51 -31.94212 115.97082 80 ft 5 kts 50°
2026-05-07 05:51 -31.94188 115.97098 80 ft 2 kts 19°
2026-05-07 05:51 -31.94178 115.97102 80 ft 1 kts 21°
2026-05-07 05:52 -31.94175 115.97103 80 ft 0 kts 22°